Wind_Speed
25 24 23 23 22 22 21 19 17 14 10 6 4 5 10 16 20 18 13 11 12 14 21 30 37 43 46 45 48 47 35 26 28 30 31 33 30 27 26 27 27 24 23 22 23 25 25 25 26 22 20 22 18 14 16 18 22 34 39 38 38 38 40 43 44 43 43 44 47 48 46 45 43 40 39 38 36 40 46 47 46 47 49 50 50 50 50
21 20 20 19 18 17 17 14 10 8 7 4 3 7 16 22 23 19 13 13 15 15 21 32 37 40 44 46 49 43 30 27 30 31 31 32 30 28 25 25 22 19 23 26 24 25 26 26 27 25 23 23 21 19 20 20 23 34 42 40 39 39 41 44 45 44 45 44 45 48 49 48 46 45 43 40 37 38 43 48 47 43 42 44 45 47 52
19 19 19 18 16 14 12 10 8 6 4 3 6 15 23 23 20 17 14 14 15 15 22 30 33 38 44 48 46 36 26 29 34 32 31 31 30 27 25 23 19 15 21 28 26 24 26 27 28 28 27 26 24 22 23 23 25 35 44 44 41 40 40 43 45 46 47 48 46 46 48 49 48 47 46 43 40 39 43 48 50 46 39 37 38 41 48
18 18 19 18 16 13 11 9 7 4 3 5 15 23 25 22 18 16 15 14 13 16 24 28 31 38 45 47 43 31 25 31 35 32 32 32 30 28 27 25 19 16 20 27 28 26 25 27 28 28 29 27 24 24 27 27 28 35 45 47 44 42 40 41 44 45 46 47 47 44 45 47 48 48 49 47 43 40 43 46 48 48 43 35 34 37 42
17 17 18 17 14 12 10 8 6 3 4 12 23 26 24 20 18 16 16 13 15 21 25 26 31 40 45 45 39 28 25 31 33 33 33 33 32 29 26 24 19 18 21 24 27 28 25 26 28 28 30 28 24 25 29 30 29 34 42 47 47 46 42 40 41 42 42 44 45 43 42 44 46 47 49 50 47 43 45 46 45 47 46 39 36 37 39
17 16 16 15 12 10 9 7 5 5 11 20 27 26 22 19 18 17 15 13 19 25 24 23 32 42 44 42 34 26 25 29 31 34 32 30 30 26 23 21 18 18 20 21 24 28 28 26 27 28 30 27 23 26 31 31 30 34 41 47 48 47 43 40 39 40 41 44 45 44 43 43 44 47 49 51 51 48 48 49 47 45 44 41 39 39 39
15 15 14 12 10 9 8 7 10 17 24 28 27 23 20 19 19 16 12 15 23 25 22 25 35 41 41 38 30 23 24 26 29 32 28 24 24 23 21 21 19 18 19 19 21 25 28 29 28 27 30 26 22 27 33 32 31 34 38 43 45 44 41 39 39 41 43 44 45 44 44 44 44 48 52 55 54 51 49 49 48 44 41 41 42 40 38
13 12 11 9 8 8 8 14 23 28 29 27 23 21 20 21 19 15 16 23 25 23 24 30 35 36 36 33 27 23 24 24 24 25 22 18 19 20 19 19 18 17 17 17 17 17 23 30 30 27 28 26 22 27 32 32 32 34 35 37 39 40 38 37 40 42 44 45 45 43 44 46 46 48 53 57 56 52 48 47 46 43 41 44 47 45 42
11 10 9 7 7 9 15 24 28 26 23 22 21 21 22 22 19 19 24 26 24 24 29 32 33 32 31 29 26 24 23 21 19 18 17 16 17 17 17 16 16 16 15 16 17 14 18 28 30 27 28 27 25 28 32 31 32 34 35 35 35 37 37 37 39 41 42 45 45 43 43 46 47 48 51 56 56 53 50 47 46 45 45 47 49 48 46
9 8 7 6 8 15 24 28 25 22 22 21 22 23 23 21 21 25 27 25 26 30 33 32 31 30 28 26 25 22 20 18 15 15 15 15 15 16 17 16 16 17 16 17 18 16 18 27 29 27 26 24 22 27 32 31 32 34 35 33 32 34 37 39 39 37 38 40 42 41 42 44 45 45 48 53 54 54 53 51 49 49 50 50 49 48 46
7 6 6 8 14 23 28 26 22 21 21 21 22 23 23 23 25 29 29 28 30 34 33 31 30 28 27 26 23 20 18 17 16 16 16 16 16 17 18 18 17 18 18 19 19 17 20 26 28 27 24 21 19 24 31 34 34 34 34 31 31 32 35 39 40 37 34 33 34 37 42 42 40 42 46 50 51 52 54 52 49 50 52 52 50 47 46
6 6 8 12 21 28 27 23 20 19 19 21 23 24 25 27 30 31 30 30 31 31 31 30 29 28 27 25 22 20 18 17 17 17 16 16 16 17 18 18 18 19 20 19 19 19 21 25 26 26 24 21 19 21 28 36 37 35 33 31 30 30 31 35 39 38 35 31 30 36 41 40 38 42 47 50 51 49 49 48 47 47 49 49 49 47 45
6 8 11 18 27 29 24 19 18 18 19 22 24 26 29 31 32 31 30 29 28 27 27 26 26 26 25 23 21 19 17 17 17 16 13 12 13 15 17 18 19 20 20 19 19 20 23 25 25 25 24 22 18 18 25 35 38 35 33 32 30 28 27 30 33 35 35 34 34 36 39 39 39 42 45 47 49 49 47 46 46 46 46 47 46 46 45
8 11 16 25 30 26 19 17 17 18 20 23 25 28 29 31 31 30 29 27 26 26 26 24 24 24 22 20 19 17 16 16 15 12 10 9 10 12 15 17 18 18 19 19 18 19 23 25 25 25 23 21 19 17 22 31 37 35 33 32 29 26 24 24 28 31 33 34 34 35 38 39 40 41 40 40 43 45 44 45 46 46 45 45 43 42 42
11 15 22 29 28 20 16 17 18 18 21 24 26 28 29 31 31 28 27 28 28 28 26 22 20 20 19 17 16 14 15 14 11 10 9 9 12 13 14 16 17 17 16 16 15 17 21 24 25 24 22 21 19 18 19 26 34 36 35 31 27 25 23 22 23 27 30 31 29 30 33 37 39 37 34 34 38 41 41 41 44 45 44 42 40 39 40
14 20 27 28 22 16 16 18 18 20 23 25 26 28 31 32 29 26 28 29 27 24 22 18 15 13 13 15 16 16 16 14 12 11 13 15 17 17 15 16 18 18 16 14 13 15 19 23 24 24 22 21 19 19 19 21 27 34 36 33 29 25 24 24 23 25 28 29 28 26 26 30 34 35 31 31 35 40 42 41 42 45 45 42 39 38 39
17 24 28 25 18 15 17 18 19 22 24 24 27 31 32 30 28 28 29 25 21 20 19 17 15 13 12 15 18 18 16 15 12 13 18 21 21 20 18 18 21 22 22 20 19 19 19 22 23 23 22 21 20 20 19 17 19 26 32 34 32 28 26 26 25 25 27 29 30 27 22 22 27 32 33 31 31 35 40 40 38 39 42 42 39 38 38
19 26 26 20 15 15 17 19 20 22 23 24 29 32 31 29 29 29 25 19 18 19 18 17 17 17 16 17 17 16 15 15 13 15 20 22 21 21 22 23 24 25 23 23 25 24 21 21 22 22 21 22 21 20 18 16 16 20 25 28 29 30 29 27 26 25 26 28 29 28 24 20 22 26 30 30 30 31 34 35 33 33 35 37 38 38 39
20 25 22 16 13 15 18 19 20 21 22 26 31 31 29 29 29 25 20 18 19 19 17 17 17 18 18 18 17 15 15 16 16 17 20 21 20 21 21 22 24 24 22 22 23 22 20 20 21 21 21 22 22 21 19 17 17 19 23 25 27 28 28 27 27 26 26 26 27 26 24 22 22 23 24 26 28 29 29 30 31 32 33 35 35 36 36
20 22 18 13 14 16 18 20 20 21 24 29 31 29 28 29 27 22 19 19 19 18 18 17 17 18 20 20 18 15 13 15 17 18 19 20 20 21 20 20 22 22 21 20 18 17 17 18 19 20 19 19 19 19 18 18 18 19 22 25 26 26 26 26 27 26 26 26 26 24 23 22 24 24 23 22 23 25 26 27 28 29 31 34 35 33 29
19 18 14 13 15 18 19 20 21 22 25 29 28 27 28 28 24 20 19 18 19 19 17 17 18 20 20 20 19 15 12 12 14 16 17 18 19 19 18 19 20 20 19 19 18 17 16 17 19 18 14 14 17 18 16 16 17 19 20 22 24 26 27 27 26 25 25 25 24 24 22 21 22 24 23 21 21 24 26 27 27 27 27 29 31 32 28
16 14 13 14 17 18 19 21 21 23 26 27 25 26 28 26 22 20 20 18 19 18 16 16 19 20 19 19 18 15 12 12 13 15 17 19 20 19 16 15 17 18 18 18 18 18 17 17 18 16 12 11 17 20 18 15 15 18 19 20 22 25 27 27 26 25 24 22 22 23 24 24 23 23 23 23 23 24 25 25 25 27 26 24 25 27 26
13 12 14 16 18 18 20 21 22 24 25 24 24 26 27 24 20 20 21 19 18 17 15 15 17 18 18 18 17 15 14 13 13 14 15 17 19 18 15 13 13 14 15 16 15 15 16 14 13 13 12 12 15 17 17 13 11 15 18 19 20 22 25 27 28 27 26 24 23 24 25 26 25 24 25 26 24 23 22 22 22 24 27 27 26 25 25
12 13 15 18 18 19 19 21 22 23 23 24 25 27 27 23 19 20 21 20 18 17 15 14 15 17 17 16 17 16 15 14 13 13 15 15 15 15 14 12 10 10 11 12 11 11 12 11 10 10 11 10 10 11 11 11 11 12 14 16 17 18 18 22 25 26 27 26 25 25 25 26 26 25 26 26 24 21 21 21 20 21 23 25 26 25 26
12 14 17 18 18 18 19 20 21 21 22 25 26 27 26 22 18 19 22 21 19 17 15 13 15 16 15 15 16 16 15 14 12 12 13 14 13 12 12 10 9 8 8 8 7 7 8 8 8 8 8 9 9 9 8 9 9 9 9 12 15 14 11 12 16 19 21 21 20 19 19 20 22 23 24 25 22 20 20 20 20 20 19 21 23 25 25
12 15 16 17 17 18 19 20 21 21 23 26 27 27 27 23 19 19 23 23 20 17 14 13 15 16 14 13 14 14 14 13 12 12 12 12 11 11 9 8 7 6 5 6 5 4 4 5 5 6 6 7 8 9 9 9 10 8 7 9 11 11 10 10 12 14 15 16 17 16 15 15 17 19 21 22 21 20 20 21 21 21 20 20 22 23 23
12 14 16 17 18 19 19 20 21 22 24 26 27 28 27 23 20 20 22 23 20 16 14 15 16 15 13 11 11 11 12 12 11 11 11 11 10 9 9 8 7 5 5 5 5 5 6 5 5 6 6 6 7 8 9 10 11 11 10 10 11 12 12 12 12 13 13 14 14 14 13 13 15 16 17 18 18 18 20 21 22 22 22 22 22 23 23
15 16 17 17 18 19 19 20 22 23 24 25 26 26 25 22 20 20 22 22 19 16 15 15 14 13 12 10 10 9 9 9 9 9 8 8 8 7 7 7 7 6 6 7 7 7 8 8 8 8 8 8 7 8 9 10 10 11 11 11 12 13 13 14 15 15 16 15 15 15 14 14 14 15 16 17 17 18 19 21 22 22 22 22 22 23 22
16 15 16 17 17 18 20 21 21 21 21 23 24 24 23 22 21 21 23 22 19 17 16 16 14 13 11 9 9 9 8 8 7 6 6 6 6 5 5 5 5 5 5 5 6 6 7 8 8 8 8 9 8 8 8 9 10 10 11 12 13 14 14 15 16 17 18 19 19 19 19 18 18 18 18 18 19 20 20 21 22 22 23 23 23 23 23
14 13 14 15 16 17 18 19 19 18 19 21 23 23 22 22 22 23 24 23 20 18 18 17 16 15 12 10 9 8 8 7 5 5 4 4 4 4 4 4 3 3 4 4 5 6 8 9 10 10 10 10 10 10 10 10 11 12 13 14 15 15 16 17 18 18 18 19 20 21 21 21 21 20 19 19 20 20 21 22 22 23 23 23 23 23 23
13 12 12 13 14 15 15 16 17 18 20 21 23 22 21 21 22 23 24 23 20 18 18 18 17 15 12 9 7 5 5 5 4 3 2 2 2 2 2 2 3 4 5 6 7 9 11 12 14 14 14 13 12 12 13 13 14 15 16 17 18 18 19 19 20 20 20 19 20 20 21 21 21 21 21 21 21 22 22 23 23 24 24 24 24 23 23
12 11 11 11 12 12 13 15 18 20 22 22 22 21 20 19 20 21 21 20 18 17 17 16 16 14 11 9 7 5 4 4 3 3 2 2 2 2 2 3 5 6 7 8 10 11 13 15 17 18 18 18 17 17 17 17 18 19 20 21 21 21 21 21 21 21 21 21 21 21 21 21 22 22 22 23 23 24 24 24 25 25 25 25 25 25 25
10 11 10 10 11 12 14 18 21 23 23 21 20 19 18 17 17 17 17 17 17 16 15 15 14 13 11 9 8 6 5 4 4 3 3 2 2 3 4 6 7 8 9 10 11 12 13 15 17 19 21 21 21 21 20 20 21 22 24 24 23 23 23 23 24 24 24 24 24 24 24 24 24 24 25 25 25 25 26 26 26 27 27 27 27 27 27
10 10 10 10 12 14 18 22 25 24 23 20 18 18 17 16 15 15 16 16 16 15 15 14 13 11 10 9 9 7 6 5 4 4 4 4 3 4 5 6 7 9 10 11 11 12 13 15 16 18 20 21 22 23 22 21 22 23 24 25 25 25 24 25 26 27 27 27 27 27 27 27 27 28 28 27 27 27 27 27 27 28 28 29 28 28 28
10 10 10 12 15 19 22 24 25 24 22 20 18 17 16 15 14 14 14 15 15 14 13 12 11 10 8 8 8 8 7 6 5 4 4 4 3 4 5 6 7 8 9 10 12 12 12 13 14 16 18 19 21 22 22 21 21 21 22 23 24 24 23 23 24 25 27 28 28 28 28 28 29 30 31 30 30 30 29 28 28 29 29 29 29 29 29
11 11 13 16 18 21 24 25 24 23 21 19 17 16 15 14 14 14 14 14 13 12 11 11 10 9 8 7 8 8 7 6 5 4 4 3 3 4 5 6 7 7 8 10 11 11 11 11 11 13 15 16 17 18 18 18 18 18 17 18 19 19 19 18 19 20 21 23 25 25 26 26 27 29 30 31 32 32 32 32 31 30 29 29 29 29 29
13 14 17 19 20 22 24 25 24 22 20 18 16 16 14 13 14 14 14 14 13 12 12 12 11 9 8 8 8 8 7 6 5 4 4 3 3 4 5 6 6 6 8 11 11 11 12 12 11 10 10 11 12 12 12 12 12 13 13 13 14 15 15 15 16 17 18 19 20 22 23 24 25 26 28 29 30 32 33 34 34 33 32 32 31 30 29
15 16 18 20 21 22 24 24 23 22 20 18 16 15 13 12 13 14 14 14 14 13 12 11 10 8 7 7 7 6 6 5 4 4 4 4 3 4 4 5 6 7 10 11 12 13 13 12 9 7 5 5 6 7 8 8 9 10 11 12 13 13 14 15 16 16 17 17 18 20 21 23 24 26 28 29 31 32 34 34 35 35 34 34 33 31 30
17 18 19 20 21 22 23 24 24 22 21 19 16 14 13 13 13 15 15 15 14 12 11 11 9 8 7 6 6 6 5 4 3 3 4 4 4 4 4 4 6 8 11 12 14 14 13 10 8 7 6 5 5 6 7 8 9 9 10 11 12 13 14 15 16 17 17 17 18 19 20 22 23 24 25 27 30 33 35 36 36 35 35 34 33 32 31
19 20 21 21 21 21 22 23 23 22 21 19 16 14 14 14 14 15 15 14 13 11 11 10 8 6 6 6 6 5 4 3 3 3 4 4 4 4 4 4 6 8 10 13 15 16 14 11 9 10 9 7 5 5 6 7 8 9 10 10 11 12 13 14 16 17 17 17 17 17 19 20 21 22 23 24 26 29 33 36 37 36 34 33 33 32 31
22 22 23 23 22 20 20 20 20 20 19 18 16 15 15 15 15 15 15 13 12 11 10 9 7 5 6 6 5 4 4 3 3 3 3 4 4 4 4 4 6 7 9 12 15 17 15 11 8 11 12 9 6 5 5 6 7 8 9 9 9 10 11 11 11 12 13 14 14 15 16 17 18 20 21 22 23 25 28 32 34 34 33 31 31 30 29
25 25 25 25 24 22 20 19 19 18 18 17 16 15 15 15 16 16 15 13 12 11 10 8 7 6 6 6 5 4 4 3 3 3 2 3 3 3 4 5 6 7 9 12 15 16 14 10 5 8 11 10 7 5 5 6 7 7 7 8 9 10 9 9 9 11 12 13 12 12 12 13 14 15 17 18 18 20 24 28 30 30 29 29 28 27 27
28 27 27 26 25 24 22 20 19 18 17 17 16 15 15 16 17 16 14 13 12 11 10 8 7 6 6 5 4 4 4 3 3 2 2 3 3 4 4 5 5 7 9 11 13 13 11 7 2 5 9 9 8 6 6 6 6 5 5 6 6 6 7 7 9 11 12 12 10 9 9 10 10 10 11 12 13 15 20 24 27 28 28 27 27 26 26
30 30 29 28 27 25 24 22 21 19 18 16 15 15 17 18 17 16 15 14 14 13 12 10 8 7 7 6 5 4 4 3 3 2 2 3 3 4 4 4 5 6 9 11 13 12 9 5 1 4 7 7 6 5 3 4 4 3 2 2 2 3 4 6 7 8 9 8 7 6 6 6 7 8 9 11 13 15 17 20 22 24 24 24 24 24 24
31 32 31 30 28 26 25 23 22 21 19 16 15 16 17 17 18 19 19 18 16 15 14 12 10 9 9 8 6 5 4 3 3 3 3 3 3 4 4 4 5 6 7 10 12 11 7 2 2 4 5 5 3 2 1 2 2 1 1 1 0 2 2 2 4 4 5 6 6 5 5 5 7 8 9 11 13 15 17 18 19 20 21 21 21 21 21
31 33 33 32 30 28 26 23 22 21 19 17 17 18 19 21 23 23 22 20 19 18 17 15 13 11 10 9 7 5 4 4 4 3 3 2 3 4 4 5 5 5 6 9 11 10 5 1 3 3 4 3 2 1 1 1 2 2 2 2 1 1 0 1 2 2 5 7 7 6 6 6 7 8 9 11 13 15 15 17 18 18 19 20 20 20 20
30 33 33 33 32 30 27 23 21 21 21 20 20 21 24 26 26 25 24 22 21 19 18 16 15 13 11 9 8 6 5 5 4 4 3 2 3 4 5 5 5 4 5 7 10 10 5 2 3 3 2 2 2 3 3 3 4 3 3 2 2 2 1 0 1 4 8 9 10 9 8 7 8 9 9 10 13 15 16 17 18 18 19 20 19 19 20
28 31 33 34 33 31 28 24 22 23 23 22 22 24 26 27 27 26 25 24 22 20 19 19 17 14 13 11 9 7 6 5 5 4 3 2 2 3 4 5 5 4 4 5 7 9 7 2 3 3 2 2 3 4 4 4 5 4 3 3 3 3 2 3 5 7 10 12 12 12 11 10 11 11 11 10 11 14 17 19 20 20 20 20 19 20 21
29 30 32 34 33 31 29 27 26 26 26 25 24 25 27 27 27 26 26 24 23 22 22 20 18 15 14 12 10 8 7 6 5 5 4 2 2 3 3 4 3 4 4 4 5 7 8 5 2 3 3 3 4 4 3 3 4 4 3 3 3 4 4 5 6 9 11 13 13 13 13 13 13 13 12 12 12 14 16 19 20 21 21 21 21 22 22
32 30 31 33 33 32 31 29 28 28 27 26 25 26 27 28 28 27 27 26 25 25 23 20 18 16 15 13 11 9 8 6 6 6 4 3 2 1 2 2 2 3 3 3 3 5 7 7 5 2 3 5 5 4 3 1 1 2 2 2 3 3 3 4 6 8 9 10 12 13 13 13 13 12 12 12 12 12 13 14 17 19 20 20 21 21 22
35 33 31 31 33 34 33 32 31 30 29 28 27 27 28 29 29 29 28 28 27 26 24 22 20 18 16 14 12 11 9 8 8 7 5 3 2 1 1 1 2 3 3 2 2 3 4 6 7 6 4 3 5 5 5 4 2 1 2 3 3 3 3 3 4 6 7 8 10 11 12 12 12 12 12 12 12 12 12 14 16 17 19 20 21 22 23
35 35 34 32 33 34 35 35 33 32 31 31 30 29 29 29 29 29 29 28 27 26 25 24 23 21 18 17 15 13 11 9 9 8 6 4 3 1 2 1 2 2 2 2 1 1 2 3 6 8 8 7 4 3 3 3 3 3 3 4 4 4 3 3 4 6 8 9 10 12 13 13 14 14 15 16 16 17 18 19 20 22 23 24 25 26 27
Wind_Direction
9 21 30 35 38 40 40 38 40 43 44 57 101 144 153 144 130 118 118 141 164 177 179 172 161 154 158 162 161 160 158 156 165 172 171 171 168 159 159 168 173 178 186 186 182 185 185 178 178 178 164 159 162 168 174 172 181 192 194 197 201 201 195 189 188 191 191 193 197 197 196 198 201 202 202 207 209 204 204 207 210 214 217 217 218 218 220
2 10 16 18 21 27 25 22 29 29 23 45 95 141 142 134 123 118 129 156 165 171 172 166 159 157 161 165 163 160 156 154 164 171 170 172 172 160 155 165 167 169 185 190 185 185 186 181 183 180 165 165 174 174 173 172 176 186 190 194 199 201 199 194 191 191 191 193 197 198 198 200 202 203 202 204 206 203 203 206 208 212 216 217 217 219 220
352 358 1 4 8 13 13 6 5 8 15 72 127 139 139 131 118 118 138 157 158 164 169 165 161 161 164 165 162 155 149 156 166 171 169 172 174 163 155 164 170 166 179 187 185 185 187 183 184 181 172 177 183 176 174 174 176 185 189 192 197 200 201 198 196 194 192 194 197 196 197 200 202 204 204 203 201 199 201 205 206 208 212 217 220 220 221
344 349 353 358 3 7 8 3 2 15 46 122 134 135 133 126 118 123 136 147 153 160 164 162 162 163 165 166 161 150 146 157 164 169 172 174 178 173 164 165 170 168 174 182 183 186 188 185 183 180 176 183 186 180 180 181 180 185 189 191 195 198 200 200 200 199 197 198 202 201 199 200 201 202 203 201 198 197 199 202 205 206 209 216 223 224 223
341 345 350 356 3 9 14 15 19 39 99 132 136 132 124 117 119 123 124 134 153 156 155 159 163 164 167 167 160 146 145 158 165 171 176 179 182 180 173 168 166 166 171 179 184 188 190 187 186 179 175 184 193 187 184 183 179 183 189 193 196 197 199 199 199 200 200 202 207 208 207 205 203 203 203 200 198 198 197 199 202 206 210 216 222 223 224
341 343 351 358 4 15 24 29 43 90 122 133 133 126 116 113 116 116 115 137 157 152 149 159 165 166 168 166 155 142 147 161 173 178 179 181 183 183 181 177 173 171 175 179 186 191 193 191 191 183 175 183 195 189 186 186 180 182 191 196 197 198 200 198 195 197 201 204 207 209 211 210 208 207 205 201 200 200 200 199 199 203 209 216 222 223 222
343 344 351 1 13 26 37 62 102 118 124 127 126 120 115 115 116 113 120 148 152 145 144 158 165 167 167 162 149 141 153 167 176 180 181 182 182 183 185 185 183 181 182 184 186 191 196 197 196 188 180 184 191 187 190 191 182 182 193 199 198 198 200 200 197 197 202 206 208 209 211 212 211 210 206 203 201 201 201 200 199 202 207 213 219 222 221
346 348 356 10 28 44 76 111 122 124 124 125 123 119 117 117 113 112 130 143 143 138 144 156 164 166 164 159 153 151 162 169 170 175 179 180 181 185 186 188 192 192 190 191 192 197 203 202 199 192 185 187 191 189 193 196 188 186 195 200 198 196 196 197 197 199 204 208 208 210 211 210 209 208 207 206 203 202 200 199 200 203 208 211 214 216 217
351 356 8 28 49 82 116 128 130 128 124 122 122 122 123 120 114 120 134 139 137 138 146 155 161 162 161 160 159 159 161 163 165 172 177 178 183 187 188 190 195 195 190 191 197 202 200 198 197 192 188 189 192 193 196 199 194 192 197 201 200 195 193 193 195 200 207 209 208 210 210 208 208 209 208 207 205 202 200 200 202 205 209 212 213 214 216
359 8 25 52 85 117 131 135 133 127 123 124 127 129 128 123 123 132 137 134 134 140 147 154 158 160 161 161 159 158 157 160 169 174 174 177 183 187 189 190 189 188 185 187 193 194 190 191 194 194 192 191 193 196 199 200 199 198 200 203 202 196 195 196 198 204 211 209 206 207 207 207 209 211 209 206 205 205 204 205 206 208 210 212 214 215 217
10 28 54 87 116 132 138 137 133 130 129 131 133 133 130 126 130 135 132 129 137 144 148 152 155 158 162 162 162 161 160 163 171 173 173 179 184 185 186 186 185 185 184 188 191 187 185 191 194 195 196 195 194 197 199 201 201 201 203 205 203 199 199 201 203 209 215 211 206 203 203 204 208 210 209 206 204 206 207 209 211 212 213 214 214 215 217
32 61 89 114 132 138 139 136 135 135 134 134 135 134 130 129 130 131 127 126 133 141 145 150 156 159 161 163 164 164 164 166 170 173 176 183 188 189 188 187 186 185 185 188 189 185 186 191 193 194 194 193 196 201 200 200 202 203 203 204 203 203 206 207 207 210 214 214 209 204 201 202 205 208 209 208 206 208 209 210 211 212 214 215 215 216 218
63 93 112 129 139 140 138 138 141 138 135 136 137 134 131 131 130 127 123 121 125 135 144 152 155 156 159 162 163 165 167 168 168 169 172 181 189 189 187 188 187 184 187 191 191 187 187 189 191 194 193 190 196 205 202 199 202 203 203 203 204 207 211 211 209 209 211 212 211 208 204 204 207 209 210 212 214 215 215 213 211 211 213 215 217 220 221
91 111 126 137 141 139 139 144 144 137 135 136 136 134 133 132 129 125 123 126 135 143 145 145 147 152 155 159 162 166 168 165 161 159 163 180 192 188 188 190 187 184 188 192 192 190 189 190 191 193 191 190 194 199 198 199 202 204 204 204 205 206 209 211 210 208 210 211 212 211 209 208 209 211 213 216 218 219 218 215 213 213 215 218 221 223 225
109 124 135 140 141 139 144 149 143 135 134 134 133 134 134 133 132 132 134 138 140 138 134 132 138 147 153 155 156 157 157 157 154 149 151 165 174 176 182 183 177 174 178 183 187 189 190 192 195 195 195 196 197 197 197 199 202 206 208 209 208 206 207 211 213 212 213 213 210 209 211 210 209 212 215 215 215 215 215 214 214 214 216 220 223 225 226
121 134 140 141 139 141 149 149 139 133 134 135 135 137 138 138 138 138 136 133 129 129 130 130 132 143 150 147 141 141 145 150 154 151 142 142 150 159 169 172 165 160 162 169 181 188 190 193 197 200 204 207 206 204 203 203 205 209 213 214 214 214 210 209 212 215 215 215 211 210 214 215 213 214 215 214 213 212 213 216 217 217 218 222 224 226 228
130 140 143 141 138 141 149 148 138 136 139 140 141 142 142 141 138 133 131 128 126 130 130 121 118 128 133 131 132 137 142 145 151 149 138 132 137 148 157 163 163 159 158 163 171 180 188 193 196 199 204 208 209 209 209 208 207 208 211 213 216 216 212 207 210 214 214 215 216 218 220 218 216 217 217 216 215 216 218 220 222 222 222 225 227 230 231
136 146 147 142 137 141 149 147 140 140 145 146 146 147 145 140 135 133 133 130 126 128 122 109 115 129 128 123 127 135 141 143 147 150 143 135 136 141 144 148 152 154 157 162 166 171 180 189 194 196 200 204 208 209 209 211 209 205 205 208 212 215 214 212 213 214 214 214 218 223 224 217 210 212 216 218 220 222 224 225 226 226 227 229 232 234 234
141 150 149 141 137 143 148 146 143 145 150 151 150 149 143 139 138 140 140 130 120 121 117 105 114 131 130 122 124 129 135 138 140 144 146 142 137 137 138 140 143 146 153 161 165 170 177 184 190 194 198 203 207 209 210 211 210 207 205 207 210 213 215 218 218 217 215 215 217 221 223 219 214 213 215 220 224 225 227 228 228 230 232 233 234 237 236
144 151 149 140 140 144 147 147 146 149 153 154 153 149 144 142 144 146 143 130 119 121 120 108 112 129 131 124 123 124 127 136 137 136 139 141 138 135 136 138 138 141 147 152 156 163 173 182 188 193 200 206 206 209 212 209 206 205 206 208 208 207 210 214 215 215 214 214 214 217 220 222 222 220 220 224 226 226 227 227 229 233 235 231 229 231 232
146 151 147 141 142 144 146 148 149 152 155 157 154 149 147 148 147 146 144 132 119 121 124 116 116 125 127 126 125 121 119 134 139 128 124 130 130 128 132 136 137 140 143 143 142 145 157 172 176 177 188 199 194 191 194 194 195 200 206 208 207 206 208 210 211 212 213 213 215 217 220 223 224 221 220 222 224 222 223 227 230 231 230 224 220 221 222
148 148 143 141 143 144 146 148 151 153 156 158 158 155 152 151 148 146 145 136 126 126 127 125 122 121 122 126 128 121 116 128 136 124 114 116 116 116 123 134 137 139 141 139 134 132 138 150 151 143 145 162 166 167 170 174 186 195 198 201 205 207 209 211 212 213 214 214 217 220 220 222 222 219 218 221 224 224 223 225 228 226 220 214 212 215 216
149 145 142 143 145 146 147 149 153 155 157 160 163 161 157 153 150 150 148 144 138 134 129 127 124 119 120 126 129 122 114 117 124 120 110 108 111 114 118 122 127 135 139 140 137 130 127 131 128 119 120 131 142 152 157 157 167 180 183 187 194 199 205 210 213 214 214 214 216 218 217 217 218 219 220 223 225 224 219 219 220 218 213 209 208 210 209
149 144 144 147 148 149 151 152 155 158 161 164 166 165 162 158 155 154 154 151 147 140 133 130 127 123 122 125 125 120 114 111 113 113 111 113 117 118 115 113 116 124 130 131 132 127 121 121 121 121 128 131 130 136 135 124 128 147 161 171 175 177 189 204 210 211 213 213 215 218 217 216 216 218 219 219 219 215 208 205 205 205 205 204 202 203 204
153 148 150 154 156 156 156 156 158 161 165 168 169 168 168 166 161 157 157 157 153 147 142 139 136 132 128 127 124 120 117 117 119 120 123 126 126 123 124 128 129 131 127 120 118 118 118 122 131 141 148 147 142 140 134 131 137 141 143 155 162 160 164 181 188 191 195 199 204 210 213 211 210 209 205 203 203 201 197 194 192 192 191 190 191 194 199
160 155 156 158 158 158 158 159 163 166 168 169 171 172 173 172 167 161 160 159 153 148 144 142 143 143 140 137 132 125 122 127 133 132 132 135 135 135 140 141 136 138 137 122 116 128 139 144 155 164 166 162 158 158 157 161 172 175 160 156 164 167 166 165 164 164 170 176 183 188 187 183 183 184 185 187 190 191 191 191 192 193 190 188 190 194 199
150 147 148 149 152 155 158 161 165 166 167 169 172 174 176 176 172 166 162 158 151 145 144 144 146 149 151 146 139 133 131 135 137 134 133 138 144 148 150 143 134 139 147 144 151 173 185 187 190 193 192 186 179 178 178 179 184 189 188 185 183 184 184 183 178 175 175 179 185 190 189 181 175 174 177 182 185 187 188 192 195 197 197 197 197 199 202
135 137 141 145 149 153 156 158 161 162 165 169 172 174 177 179 176 169 163 158 151 147 148 147 146 150 155 152 146 143 141 139 138 137 134 136 141 147 146 142 143 153 164 169 180 196 206 206 203 204 209 209 201 195 196 197 196 193 193 196 200 201 201 201 199 196 193 194 196 200 202 201 198 194 191 189 188 189 192 195 198 200 201 202 201 202 204
135 139 145 147 149 152 154 157 161 163 165 169 172 175 178 180 177 170 164 159 155 152 152 151 150 152 153 151 147 145 142 140 140 140 136 134 136 138 136 136 147 164 174 179 190 209 225 229 223 218 219 222 221 216 211 210 211 208 205 206 208 210 211 212 211 209 206 205 206 208 209 210 211 210 205 200 198 198 198 200 202 203 203 204 204 204 206
139 142 148 151 152 155 158 162 167 169 169 171 173 174 174 174 173 171 167 164 161 159 157 155 155 153 149 143 140 134 130 131 137 138 139 140 140 140 140 145 163 189 209 218 222 231 245 253 252 244 236 233 232 229 223 219 217 215 214 215 216 216 216 216 216 216 214 213 214 216 218 219 219 219 216 211 207 206 205 206 206 207 207 207 207 209 210
146 145 151 157 161 164 165 169 174 175 173 171 170 168 167 167 168 170 171 170 168 166 164 163 163 162 158 154 150 139 130 134 145 155 159 160 159 164 172 188 210 230 243 248 249 250 253 258 262 261 257 251 246 241 236 232 228 224 221 220 220 221 221 221 220 221 221 220 219 220 222 224 226 226 225 223 219 216 213 212 212 213 213 213 214 216 218
158 157 160 166 172 176 177 177 175 172 168 165 163 161 161 162 164 168 174 177 176 175 175 175 177 178 179 178 177 176 176 178 181 186 195 204 216 233 261 267 264 262 262 260 259 258 258 260 263 264 263 260 254 249 245 242 239 238 235 231 228 227 228 229 230 230 229 227 225 225 226 227 227 228 229 228 226 224 221 220 219 220 220 221 223 224 226
170 174 179 184 186 185 180 173 167 164 161 159 157 156 157 161 165 170 175 180 183 184 186 189 192 195 198 201 201 202 208 211 206 209 224 240 257 277 288 288 286 287 285 280 275 270 265 263 262 262 263 263 260 255 250 246 243 242 243 242 238 235 233 234 235 236 236 234 231 229 228 228 228 228 229 229 228 228 226 225 224 224 225 226 227 228 229
178 184 192 193 188 181 174 167 163 159 156 154 152 153 156 161 167 173 177 179 183 187 191 195 199 200 204 213 219 219 220 217 214 228 249 262 279 291 293 293 297 301 301 298 294 288 279 272 266 262 260 260 260 259 256 251 246 243 244 245 244 241 238 235 234 235 236 236 236 234 232 231 231 231 231 230 230 230 229 228 227 226 226 227 227 228 229
181 184 183 178 175 172 168 166 164 160 156 154 153 154 156 160 164 168 172 174 179 184 188 192 196 196 201 218 226 223 219 217 217 230 248 261 284 301 308 313 318 320 321 318 313 307 298 288 278 269 263 258 257 256 255 253 250 246 244 243 244 243 241 238 236 235 236 237 238 238 236 235 234 234 234 234 233 232 231 230 229 228 228 227 226 227 228
178 174 169 166 168 169 169 169 170 168 162 158 157 157 158 162 163 163 166 170 174 177 180 184 187 186 192 214 224 218 215 218 223 234 244 258 288 307 315 322 326 329 331 331 328 324 319 309 295 282 272 263 256 253 250 249 248 246 241 239 239 240 240 237 235 235 235 236 237 238 238 237 236 236 236 236 235 234 233 232 231 230 229 228 227 227 227
176 169 167 167 169 172 174 174 176 175 169 163 161 161 163 165 165 164 167 170 171 172 175 179 179 176 183 206 216 213 212 216 219 227 240 258 296 315 316 318 323 333 343 344 342 338 333 325 311 294 277 261 253 249 244 241 240 236 232 229 229 232 234 235 234 234 235 235 237 237 238 239 239 238 238 237 236 235 234 232 231 230 229 229 228 226 224
177 173 171 172 174 178 180 180 181 179 174 170 168 167 167 170 170 170 172 173 173 173 175 176 174 173 181 197 205 206 210 214 216 226 245 261 279 296 305 316 330 341 349 351 348 341 334 323 308 291 270 245 236 235 234 231 230 228 228 230 233 235 237 239 240 240 240 241 241 241 242 242 243 243 242 240 239 237 235 232 231 229 229 229 229 227 224
181 177 175 176 180 184 185 185 185 183 180 178 176 175 175 177 178 177 177 177 176 175 175 175 175 178 184 190 194 198 207 217 229 246 258 264 274 287 300 323 341 347 348 348 345 340 332 315 285 257 238 223 222 227 229 230 229 228 231 235 240 242 243 245 246 245 244 244 246 247 248 249 248 247 246 243 240 237 235 232 230 227 226 225 225 225 224
185 181 178 179 181 184 186 187 187 187 186 185 184 184 186 188 186 183 181 178 174 175 179 180 180 183 185 186 190 196 206 221 242 254 257 266 278 291 304 326 345 350 346 342 340 337 331 314 275 240 224 219 222 227 230 232 232 232 232 234 239 244 248 250 249 247 246 249 253 255 256 255 253 252 251 247 241 235 231 228 226 223 222 221 221 221 222
188 187 186 185 185 185 187 188 190 190 189 189 191 193 194 194 191 186 181 175 174 179 184 183 182 185 184 182 186 195 203 215 234 245 255 267 277 289 306 329 344 348 346 343 340 337 332 319 277 235 221 218 221 232 245 249 245 239 235 239 248 255 256 253 250 247 247 251 255 259 261 260 258 256 254 249 241 233 228 223 219 217 217 217 217 218 219
192 192 193 193 193 193 193 194 196 194 191 192 196 197 195 195 192 186 179 175 178 184 188 187 187 190 186 182 188 200 207 218 237 256 271 284 291 300 314 330 339 344 348 350 345 338 332 325 287 229 216 214 222 245 262 262 254 250 253 260 265 263 257 251 250 250 248 249 252 256 258 257 255 253 249 242 234 226 220 215 211 209 209 210 212 214 216
196 197 199 199 199 200 200 201 203 201 197 196 198 195 192 194 191 183 178 179 182 185 190 194 196 197 193 189 195 204 211 223 243 263 288 306 312 318 323 330 336 342 349 354 352 345 340 339 309 207 201 205 220 245 264 265 261 262 270 274 270 261 254 249 249 249 247 244 243 245 247 244 240 237 234 225 214 209 209 207 204 202 203 204 206 209 212
199 200 202 203 203 204 204 205 206 206 203 200 196 191 190 191 187 182 183 188 189 188 192 195 197 200 201 200 203 209 214 226 249 266 288 312 327 333 331 333 339 344 349 356 359 358 357 359 65 169 180 196 217 237 260 275 271 268 281 293 268 247 244 244 244 243 239 232 223 218 220 219 214 207 202 194 189 192 196 198 198 199 199 200 202 205 207
202 202 204 206 206 206 206 207 207 207 206 202 194 187 186 188 188 189 193 195 194 194 195 195 195 199 203 204 207 214 220 233 251 266 285 314 335 339 335 338 347 348 350 359 5 7 9 25 127 151 166 185 206 215 253 301 295 294 61 57 230 223 232 252 249 231 209 197 189 181 181 189 188 185 185 184 183 184 187 188 189 191 192 192 193 196 198
205 205 206 207 208 208 207 207 207 206 205 202 193 185 185 191 196 198 197 196 196 199 201 200 198 199 202 204 207 212 220 233 244 259 284 313 330 336 341 350 355 350 351 5 12 15 22 101 146 150 158 165 154 121 101 24 13 49 89 111 163 194 223 314 283 196 165 160 158 150 149 162 170 170 174 178 176 175 177 179 180 181 182 183 185 189 190
210 209 208 209 209 209 208 207 205 202 202 202 197 192 193 197 200 201 202 201 199 201 205 206 203 200 201 204 207 211 219 231 242 254 274 301 319 329 347 3 4 353 355 11 17 18 27 111 165 161 149 147 140 126 111 79 54 61 95 136 180 202 195 77 119 142 144 142 136 130 133 148 158 157 158 164 167 168 172 175 176 176 177 180 183 184 182
214 212 211 211 210 209 208 206 202 200 202 205 204 202 203 203 202 203 206 207 205 204 207 208 206 204 204 202 202 206 216 226 237 249 262 282 298 320 355 15 9 352 359 21 24 23 30 67 171 179 151 142 150 146 124 92 72 74 99 143 179 186 158 112 117 134 140 137 132 128 131 139 143 139 133 133 139 149 158 164 167 167 167 168 168 166 163
218 215 214 213 211 209 207 205 200 199 203 208 209 208 209 209 207 207 209 209 209 211 214 211 207 207 208 205 202 206 215 223 235 247 256 266 281 314 5 23 4 346 6 31 33 30 35 49 124 187 184 168 165 161 145 110 86 86 104 140 160 156 134 114 115 127 137 140 136 133 132 133 134 133 130 128 129 133 140 147 152 154 156 157 158 158 158
219 217 216 214 212 210 207 205 201 201 205 209 211 211 212 211 210 210 211 212 212 215 218 216 211 210 212 209 205 208 214 222 233 244 251 256 264 300 7 2 326 339 9 28 31 33 40 47 60 119 184 199 202 203 209 213 116 106 126 147 149 135 123 115 113 120 131 140 139 133 129 129 133 137 139 139 140 142 144 148 152 156 158 161 163 164 164
221 219 217 216 214 211 208 205 203 203 206 209 211 212 213 213 213 212 213 214 214 216 218 217 215 214 215 213 207 205 210 221 232 239 244 251 255 257 73 314 309 340 10 23 32 45 47 48 55 67 93 164 204 218 230 241 233 180 165 172 167 146 131 124 116 115 124 134 136 130 126 127 131 137 139 139 142 145 148 149 151 153 153 155 155 154 152
221 220 219 217 216 214 211 207 203 203 205 208 211 214 215 217 217 216 216 216 216 216 217 217 216 215 215 214 210 206 207 217 229 236 239 243 246 144 116 195 275 320 358 6 19 75 79 57 55 62 70 78 98 145 197 218 215 198 187 185 180 169 162 154 135 124 127 131 129 126 124 123 124 125 127 129 131 134 135 135 137 138 139 140 140 140 140
Height
5508 5504 5501 5499 5496 5494 5492 5490 5489 5489 5488 5487 5488 5488 5489 5490 5492 5494 5498 5500 5502 5504 5508 5513 5518 5523 5529 5534 5539 5545 5550 5555 5558 5562 5564 5567 5570 5570 5572 5576 5579 5581 5583 5586 5588 5589 5591 5594 5597 5600 5603 5606 5608 5610 5612 5615 5617 5621 5626 5631 5634 5638 5641 5645 5647 5651 5656 5660 5663 5667 5671 5673 5676 5680 5684 5688 5691 5695 5698 5702 5705 5708 5710 5713 5715 5717 5720
5509 5506 5503 5501 5499 5497 5495 5494 5493 5491 5490 5490 5490 5490 5491 5492 5493 5496 5499 5501 5503 5506 5509 5514 5519 5524 5528 5532 5538 5545 5550 5553 5556 5560 5563 5566 5569 5569 5570 5574 5578 5580 5582 5585 5587 5589 5591 5594 5597 5600 5603 5605 5606 5607 5610 5613 5615 5619 5623 5628 5632 5635 5639 5642 5645 5648 5653 5657 5661 5665 5669 5672 5675 5678 5681 5685 5689 5692 5696 5698 5701 5704 5706 5709 5711 5714 5717
5509 5507 5504 5502 5500 5498 5497 5496 5494 5493 5492 5491 5491 5491 5493 5495 5496 5498 5501 5503 5505 5508 5511 5515 5520 5525 5528 5533 5539 5545 5550 5552 5555 5559 5562 5565 5568 5568 5567 5572 5577 5579 5581 5584 5587 5589 5591 5593 5596 5599 5602 5603 5605 5607 5609 5612 5614 5617 5621 5626 5630 5634 5637 5640 5643 5645 5649 5653 5656 5661 5665 5669 5672 5676 5679 5683 5686 5689 5691 5694 5696 5699 5702 5706 5708 5711 5714
5509 5507 5505 5502 5500 5499 5497 5496 5495 5494 5493 5493 5493 5494 5496 5497 5499 5501 5503 5505 5507 5509 5513 5517 5521 5526 5530 5534 5540 5545 5549 5552 5555 5558 5561 5563 5566 5566 5566 5570 5575 5578 5580 5583 5586 5588 5591 5593 5595 5598 5600 5602 5604 5607 5608 5610 5612 5615 5619 5622 5626 5631 5635 5639 5642 5645 5649 5652 5654 5658 5661 5664 5668 5671 5675 5679 5682 5684 5686 5689 5692 5696 5699 5702 5705 5708 5712
5509 5507 5505 5503 5501 5499 5498 5497 5496 5495 5495 5495 5496 5497 5499 5500 5502 5505 5507 5509 5510 5512 5515 5519 5522 5526 5530 5535 5540 5545 5549 5552 5554 5557 5560 5562 5565 5567 5569 5572 5575 5578 5580 5583 5586 5588 5590 5593 5594 5597 5599 5601 5603 5606 5607 5609 5611 5614 5618 5620 5623 5627 5632 5637 5642 5646 5650 5652 5654 5657 5660 5662 5665 5667 5671 5674 5678 5680 5682 5684 5688 5692 5696 5698 5701 5705 5708
5509 5507 5505 5503 5502 5500 5499 5498 5497 5497 5496 5498 5499 5501 5502 5503 5506 5508 5509 5511 5512 5514 5517 5521 5524 5528 5531 5536 5542 5546 5549 5552 5554 5557 5561 5564 5566 5569 5571 5573 5576 5578 5580 5582 5585 5588 5590 5592 5594 5597 5599 5601 5603 5605 5607 5608 5611 5614 5616 5618 5621 5625 5630 5635 5641 5645 5647 5648 5651 5653 5657 5660 5663 5666 5668 5672 5674 5676 5679 5681 5684 5688 5692 5695 5698 5702 5705
5508 5507 5505 5504 5502 5501 5500 5500 5499 5499 5499 5501 5503 5504 5505 5506 5508 5510 5511 5512 5515 5517 5520 5523 5527 5530 5534 5539 5543 5546 5549 5552 5555 5558 5562 5565 5568 5569 5571 5573 5576 5578 5580 5582 5585 5587 5589 5591 5593 5596 5599 5601 5603 5605 5607 5608 5610 5613 5616 5617 5620 5624 5629 5634 5638 5641 5643 5644 5647 5650 5653 5657 5660 5663 5665 5668 5671 5674 5677 5679 5682 5685 5688 5691 5694 5698 5702
5508 5507 5506 5504 5503 5502 5502 5502 5502 5503 5503 5505 5506 5507 5508 5509 5511 5512 5513 5514 5517 5520 5523 5526 5530 5533 5537 5541 5544 5547 5551 5554 5558 5561 5564 5566 5568 5570 5571 5573 5576 5578 5580 5582 5584 5586 5588 5590 5593 5596 5598 5600 5602 5604 5606 5608 5610 5612 5615 5617 5620 5624 5628 5632 5635 5638 5639 5641 5644 5647 5650 5653 5656 5659 5662 5665 5669 5673 5676 5678 5680 5683 5686 5687 5689 5693 5697
5509 5507 5506 5505 5504 5504 5504 5505 5506 5506 5507 5508 5509 5510 5511 5512 5513 5514 5516 5518 5520 5523 5526 5529 5533 5537 5540 5543 5547 5550 5553 5556 5559 5561 5563 5565 5567 5570 5571 5573 5575 5577 5580 5582 5583 5585 5586 5589 5592 5595 5597 5599 5601 5603 5605 5608 5610 5612 5614 5616 5619 5623 5627 5630 5632 5634 5635 5638 5641 5644 5647 5650 5653 5656 5659 5663 5667 5671 5673 5675 5677 5680 5682 5684 5686 5689 5693
5509 5508 5507 5506 5506 5506 5507 5508 5509 5510 5511 5512 5512 5513 5514 5514 5516 5517 5518 5521 5523 5526 5529 5533 5537 5541 5544 5547 5550 5553 5556 5558 5560 5562 5564 5565 5567 5569 5571 5573 5575 5577 5579 5581 5582 5584 5585 5588 5591 5594 5596 5599 5601 5603 5605 5607 5609 5611 5613 5615 5619 5622 5625 5628 5630 5631 5633 5635 5638 5642 5645 5649 5651 5654 5657 5660 5665 5668 5670 5672 5674 5676 5678 5680 5684 5687 5691
5509 5508 5508 5507 5508 5508 5510 5511 5512 5513 5513 5514 5515 5516 5517 5517 5519 5520 5522 5524 5527 5530 5533 5537 5541 5544 5547 5549 5552 5554 5557 5559 5561 5562 5564 5565 5567 5569 5571 5573 5574 5576 5578 5580 5582 5584 5586 5588 5591 5594 5597 5599 5600 5602 5604 5606 5608 5610 5613 5615 5618 5622 5625 5627 5628 5630 5631 5634 5637 5640 5643 5646 5650 5653 5655 5658 5662 5665 5667 5669 5672 5675 5677 5679 5681 5685 5688
5510 5509 5509 5509 5510 5511 5513 5514 5515 5516 5516 5517 5518 5519 5520 5521 5523 5525 5527 5529 5532 5535 5538 5541 5544 5546 5549 5551 5553 5555 5557 5559 5561 5563 5564 5565 5567 5568 5570 5572 5574 5575 5577 5579 5582 5584 5586 5588 5591 5594 5596 5598 5600 5601 5603 5605 5607 5609 5612 5615 5618 5621 5624 5626 5627 5629 5630 5633 5636 5638 5641 5645 5648 5651 5653 5655 5659 5662 5665 5667 5670 5673 5675 5677 5680 5682 5684
5511 5511 5511 5512 5513 5515 5516 5517 5518 5519 5519 5520 5521 5522 5523 5525 5527 5529 5532 5533 5536 5539 5541 5543 5546 5549 5551 5553 5555 5557 5558 5560 5562 5563 5564 5565 5566 5568 5569 5571 5573 5575 5577 5579 5581 5583 5585 5588 5590 5593 5595 5597 5599 5600 5602 5604 5606 5609 5612 5615 5617 5620 5622 5624 5627 5628 5630 5632 5635 5637 5640 5644 5646 5648 5650 5654 5656 5659 5662 5664 5667 5670 5673 5675 5677 5679 5681
5513 5513 5513 5514 5516 5518 5519 5519 5520 5521 5522 5523 5524 5525 5527 5529 5531 5533 5535 5536 5538 5540 5542 5545 5548 5551 5553 5555 5556 5558 5560 5561 5563 5564 5565 5565 5566 5567 5568 5569 5571 5574 5576 5578 5581 5583 5585 5587 5589 5591 5594 5597 5598 5600 5601 5603 5606 5608 5611 5613 5616 5619 5621 5623 5626 5628 5630 5632 5634 5636 5639 5641 5643 5646 5649 5652 5654 5657 5660 5663 5665 5667 5670 5672 5675 5677 5679
5514 5515 5516 5517 5519 5520 5521 5522 5523 5524 5526 5527 5528 5529 5531 5532 5534 5535 5536 5538 5540 5543 5545 5548 5551 5553 5555 5556 5558 5559 5561 5562 5563 5564 5565 5565 5564 5565 5567 5568 5570 5573 5575 5578 5581 5583 5585 5587 5589 5591 5594 5596 5598 5600 5601 5603 5605 5607 5610 5612 5615 5618 5620 5622 5625 5627 5629 5631 5633 5635 5637 5639 5642 5644 5647 5649 5652 5655 5658 5661 5662 5665 5667 5670 5673 5675 5677
5517 5517 5519 5520 5522 5523 5523 5525 5526 5528 5529 5530 5531 5533 5534 5535 5537 5538 5540 5542 5544 5547 5549 5551 5553 5555 5556 5557 5558 5560 5562 5563 5564 5565 5565 5565 5564 5565 5566 5568 5570 5572 5575 5578 5581 5583 5585 5586 5589 5591 5593 5595 5598 5599 5601 5603 5605 5606 5608 5611 5614 5616 5618 5621 5623 5625 5627 5629 5632 5634 5636 5638 5640 5643 5645 5647 5649 5652 5655 5658 5660 5662 5665 5668 5670 5673 5675
5519 5520 5522 5523 5524 5525 5526 5527 5529 5530 5532 5533 5534 5535 5537 5538 5540 5542 5544 5545 5547 5549 5551 5553 5554 5556 5557 5558 5560 5561 5562 5564 5564 5566 5566 5566 5565 5566 5566 5568 5570 5571 5573 5576 5578 5581 5583 5586 5588 5591 5593 5595 5597 5598 5600 5602 5603 5605 5607 5609 5612 5614 5617 5619 5621 5624 5626 5628 5630 5633 5635 5637 5639 5641 5643 5646 5648 5650 5653 5655 5658 5661 5664 5666 5668 5670 5673
5522 5523 5524 5525 5526 5527 5529 5530 5531 5533 5534 5535 5537 5538 5540 5542 5544 5545 5546 5548 5549 5551 5553 5554 5556 5557 5559 5560 5561 5562 5564 5565 5566 5567 5568 5567 5567 5567 5567 5569 5570 5571 5573 5575 5577 5579 5582 5585 5588 5590 5592 5593 5595 5597 5599 5601 5602 5604 5606 5608 5610 5613 5615 5617 5620 5622 5625 5627 5629 5632 5634 5636 5638 5639 5642 5644 5646 5648 5651 5654 5657 5661 5663 5664 5666 5668 5670
5524 5525 5526 5527 5529 5530 5531 5532 5534 5535 5536 5538 5539 5541 5543 5545 5546 5547 5548 5550 5552 5553 5555 5556 5557 5559 5560 5561 5563 5564 5565 5566 5567 5568 5569 5569 5569 5570 5570 5570 5571 5572 5574 5576 5578 5579 5582 5584 5587 5589 5591 5592 5594 5596 5598 5599 5601 5603 5604 5606 5608 5611 5614 5616 5618 5621 5623 5625 5628 5630 5633 5635 5637 5639 5641 5644 5645 5648 5650 5653 5656 5658 5659 5661 5663 5665 5666
5527 5528 5529 5530 5530 5532 5533 5535 5536 5537 5539 5540 5542 5544 5546 5547 5548 5549 5551 5553 5554 5555 5556 5558 5559 5560 5561 5563 5564 5565 5566 5567 5568 5569 5570 5570 5571 5572 5572 5573 5573 5574 5575 5577 5579 5580 5582 5584 5586 5589 5590 5591 5592 5594 5596 5598 5600 5601 5602 5604 5607 5610 5612 5614 5616 5618 5621 5623 5626 5629 5632 5634 5636 5639 5641 5643 5645 5647 5649 5651 5652 5653 5655 5657 5659 5661 5663
5530 5530 5531 5532 5533 5534 5535 5537 5538 5539 5541 5543 5545 5547 5548 5549 5550 5551 5553 5555 5556 5557 5558 5559 5560 5562 5562 5563 5565 5566 5567 5568 5569 5570 5571 5572 5572 5573 5574 5575 5575 5576 5577 5579 5580 5582 5582 5584 5586 5587 5588 5589 5590 5592 5594 5596 5598 5600 5601 5603 5605 5607 5610 5611 5614 5617 5619 5622 5625 5628 5631 5633 5635 5637 5640 5641 5643 5645 5646 5647 5649 5650 5651 5653 5656 5658 5661
5532 5533 5533 5534 5535 5536 5538 5539 5540 5542 5544 5546 5547 5549 5550 5551 5552 5553 5555 5556 5557 5558 5559 5561 5562 5563 5564 5565 5566 5568 5569 5570 5571 5572 5573 5573 5573 5575 5577 5577 5577 5578 5579 5581 5582 5583 5584 5586 5586 5587 5588 5588 5589 5591 5593 5595 5596 5598 5599 5601 5603 5605 5608 5610 5613 5615 5618 5621 5624 5626 5628 5631 5633 5635 5637 5639 5640 5642 5643 5645 5646 5648 5649 5651 5654 5656 5659
5534 5534 5535 5536 5537 5539 5540 5541 5542 5544 5546 5547 5549 5551 5552 5554 5554 5555 5556 5558 5559 5560 5562 5563 5565 5566 5567 5567 5568 5569 5570 5571 5573 5574 5575 5575 5575 5576 5578 5580 5580 5580 5581 5582 5584 5585 5586 5587 5588 5589 5590 5591 5592 5593 5594 5594 5595 5597 5598 5600 5601 5603 5606 5608 5610 5613 5616 5618 5621 5623 5625 5628 5630 5632 5634 5636 5637 5639 5640 5642 5643 5645 5647 5649 5652 5654 5657
5535 5536 5537 5538 5539 5540 5542 5543 5544 5546 5548 5549 5550 5552 5554 5556 5557 5557 5559 5560 5561 5563 5564 5566 5567 5568 5569 5570 5571 5572 5573 5574 5575 5576 5576 5577 5578 5579 5580 5582 5582 5582 5583 5584 5585 5585 5586 5588 5589 5590 5592 5594 5595 5595 5596 5596 5596 5598 5599 5600 5601 5603 5605 5607 5608 5611 5614 5616 5618 5620 5622 5625 5627 5629 5630 5632 5635 5637 5638 5639 5641 5643 5644 5647 5650 5652 5654
5536 5537 5538 5539 5540 5541 5543 5544 5546 5547 5549 5550 5552 5553 5555 5557 5558 5560 5561 5562 5564 5565 5566 5567 5568 5570 5571 5572 5573 5574 5574 5576 5577 5578 5578 5579 5580 5581 5582 5583 5584 5584 5585 5585 5586 5586 5587 5588 5590 5591 5593 5595 5596 5596 5597 5598 5598 5599 5601 5602 5603 5604 5606 5607 5608 5610 5612 5615 5617 5619 5620 5622 5624 5626 5628 5630 5633 5635 5636 5638 5640 5641 5643 5645 5648 5650 5653
5537 5538 5539 5540 5541 5542 5544 5545 5547 5548 5549 5551 5553 5555 5556 5558 5560 5561 5563 5564 5565 5567 5568 5569 5570 5571 5573 5574 5575 5575 5576 5577 5578 5579 5580 5581 5582 5583 5584 5585 5585 5586 5587 5588 5588 5588 5589 5590 5591 5591 5593 5594 5596 5597 5598 5599 5600 5601 5602 5603 5604 5605 5607 5608 5609 5611 5612 5615 5616 5618 5620 5621 5623 5625 5627 5629 5631 5633 5635 5637 5639 5641 5643 5645 5647 5649 5652
5538 5539 5540 5541 5542 5543 5544 5546 5547 5549 5550 5552 5554 5555 5557 5559 5561 5563 5564 5566 5567 5568 5569 5570 5572 5573 5574 5575 5576 5577 5577 5578 5579 5581 5581 5582 5583 5584 5585 5586 5587 5587 5588 5588 5589 5589 5589 5590 5591 5592 5593 5594 5595 5596 5598 5599 5600 5601 5603 5604 5605 5606 5607 5609 5610 5612 5613 5615 5617 5618 5620 5621 5623 5625 5626 5628 5630 5632 5634 5636 5638 5640 5642 5644 5646 5648 5650
5540 5541 5541 5542 5543 5544 5545 5547 5548 5550 5551 5553 5555 5557 5558 5560 5562 5564 5566 5567 5568 5570 5571 5572 5573 5574 5575 5576 5577 5578 5578 5579 5580 5581 5582 5583 5583 5584 5585 5586 5587 5587 5588 5588 5589 5589 5589 5590 5591 5592 5593 5593 5595 5596 5597 5599 5600 5601 5602 5604 5605 5606 5607 5608 5610 5611 5613 5614 5615 5617 5619 5620 5622 5623 5625 5627 5629 5631 5633 5635 5637 5638 5640 5642 5644 5646 5648
5542 5542 5543 5544 5545 5546 5547 5548 5550 5552 5553 5554 5556 5558 5559 5561 5563 5565 5567 5568 5569 5571 5571 5572 5573 5575 5576 5577 5578 5578 5579 5580 5581 5582 5582 5583 5584 5585 5585 5586 5587 5587 5588 5588 5589 5589 5589 5589 5591 5592 5593 5593 5594 5596 5597 5598 5599 5601 5602 5603 5604 5604 5606 5607 5608 5610 5611 5613 5614 5615 5616 5618 5619 5621 5623 5625 5627 5629 5631 5633 5635 5637 5638 5640 5642 5644 5646
5543 5544 5545 5546 5547 5548 5549 5550 5551 5553 5554 5555 5557 5558 5560 5562 5564 5566 5567 5569 5570 5571 5572 5573 5574 5576 5577 5578 5579 5580 5580 5581 5582 5582 5583 5583 5584 5585 5586 5586 5587 5587 5588 5588 5589 5589 5588 5588 5589 5590 5591 5592 5593 5594 5596 5597 5598 5599 5600 5601 5601 5602 5603 5604 5606 5607 5609 5610 5612 5613 5615 5616 5617 5619 5621 5623 5626 5628 5630 5631 5633 5635 5636 5638 5640 5642 5644
5544 5545 5546 5547 5548 5549 5550 5551 5552 5553 5554 5556 5557 5559 5561 5562 5564 5566 5568 5569 5571 5572 5573 5574 5575 5576 5578 5579 5580 5581 5581 5582 5582 5582 5583 5583 5584 5585 5585 5586 5587 5587 5587 5587 5588 5588 5587 5587 5586 5587 5588 5590 5591 5592 5593 5594 5595 5596 5597 5598 5599 5600 5601 5602 5603 5605 5606 5608 5610 5611 5613 5614 5616 5618 5619 5621 5623 5625 5627 5629 5631 5632 5634 5636 5638 5639 5641
5545 5546 5547 5547 5548 5549 5550 5551 5552 5554 5555 5557 5559 5560 5562 5563 5565 5567 5568 5570 5571 5573 5574 5575 5576 5577 5578 5579 5580 5581 5581 5582 5582 5582 5583 5583 5583 5584 5585 5585 5585 5586 5586 5586 5586 5586 5586 5585 5584 5584 5584 5586 5587 5589 5590 5591 5592 5593 5594 5595 5596 5598 5598 5599 5601 5602 5604 5605 5607 5609 5610 5612 5613 5615 5616 5618 5620 5622 5624 5626 5628 5629 5631 5633 5635 5636 5638
5545 5546 5547 5548 5548 5549 5550 5551 5553 5555 5557 5558 5560 5561 5563 5564 5566 5567 5569 5570 5572 5573 5574 5575 5576 5577 5578 5579 5580 5581 5581 5581 5582 5582 5582 5582 5583 5584 5584 5584 5583 5583 5583 5583 5583 5583 5583 5583 5582 5582 5582 5582 5583 5584 5586 5587 5588 5588 5589 5590 5592 5594 5596 5597 5598 5599 5600 5602 5604 5606 5607 5609 5610 5612 5613 5615 5617 5618 5620 5622 5625 5626 5628 5630 5632 5633 5635
5545 5546 5546 5547 5548 5549 5551 5552 5554 5556 5558 5559 5561 5562 5564 5565 5567 5568 5569 5570 5572 5573 5574 5575 5576 5577 5579 5580 5580 5580 5581 5581 5581 5582 5582 5582 5582 5583 5583 5583 5582 5582 5581 5580 5580 5580 5580 5580 5580 5580 5579 5579 5579 5580 5582 5583 5584 5584 5585 5586 5588 5589 5591 5593 5594 5595 5596 5598 5599 5601 5603 5605 5607 5608 5609 5611 5613 5615 5617 5619 5621 5623 5625 5626 5628 5630 5632
5545 5545 5546 5547 5548 5550 5551 5553 5555 5557 5558 5560 5562 5563 5565 5566 5567 5568 5569 5570 5571 5573 5574 5575 5576 5577 5579 5580 5580 5580 5580 5581 5581 5581 5582 5582 5582 5582 5582 5582 5581 5581 5580 5579 5578 5577 5577 5576 5576 5576 5576 5576 5576 5577 5578 5579 5580 5580 5581 5582 5583 5584 5586 5588 5589 5591 5592 5594 5595 5597 5599 5601 5602 5604 5605 5607 5609 5611 5613 5615 5617 5619 5620 5622 5624 5626 5628
5544 5545 5546 5547 5549 5550 5552 5554 5556 5558 5559 5561 5562 5564 5565 5566 5567 5568 5569 5570 5571 5573 5574 5575 5576 5577 5578 5579 5580 5580 5580 5581 5581 5581 5581 5581 5582 5582 5581 5581 5581 5580 5579 5578 5577 5576 5575 5574 5574 5573 5573 5573 5573 5573 5574 5575 5576 5577 5578 5579 5580 5581 5583 5584 5586 5587 5588 5590 5591 5592 5594 5596 5597 5599 5601 5603 5605 5606 5608 5610 5612 5614 5616 5618 5620 5622 5624
5544 5545 5546 5548 5549 5551 5553 5555 5557 5558 5560 5561 5563 5564 5565 5566 5567 5568 5569 5570 5571 5572 5573 5575 5576 5577 5578 5579 5580 5580 5580 5580 5581 5581 5581 5581 5581 5581 5581 5581 5580 5580 5579 5577 5576 5575 5573 5573 5572 5571 5571 5570 5571 5571 5572 5573 5574 5575 5576 5577 5578 5579 5580 5581 5582 5584 5585 5586 5587 5589 5590 5591 5593 5594 5596 5598 5600 5601 5603 5605 5607 5609 5611 5613 5615 5617 5620
5544 5545 5547 5548 5550 5552 5553 5555 5557 5558 5560 5561 5563 5564 5565 5566 5567 5568 5569 5570 5571 5572 5574 5575 5576 5577 5577 5578 5579 5580 5580 5580 5580 5580 5581 5581 5581 5581 5581 5580 5579 5578 5577 5576 5575 5573 5572 5571 5570 5569 5570 5570 5570 5570 5571 5572 5572 5573 5574 5575 5576 5577 5578 5578 5579 5581 5582 5583 5584 5585 5586 5587 5589 5590 5591 5593 5594 5595 5597 5599 5602 5604 5606 5609 5611 5613 5615
5544 5546 5547 5549 5551 5552 5554 5555 5556 5558 5559 5561 5562 5563 5565 5566 5567 5568 5569 5570 5572 5573 5574 5575 5576 5577 5577 5578 5579 5579 5579 5579 5580 5580 5580 5580 5580 5580 5580 5579 5578 5577 5576 5575 5574 5572 5571 5570 5569 5569 5569 5569 5570 5570 5570 5571 5571 5572 5572 5573 5574 5574 5575 5576 5576 5577 5578 5579 5580 5581 5582 5583 5584 5585 5586 5587 5588 5589 5591 5593 5596 5599 5601 5604 5607 5609 5611
5544 5546 5547 5549 5550 5552 5553 5555 5556 5558 5559 5560 5562 5563 5564 5565 5566 5568 5569 5571 5572 5573 5574 5575 5576 5576 5577 5578 5579 5579 5579 5579 5579 5579 5580 5580 5579 5579 5579 5578 5578 5577 5575 5574 5572 5571 5570 5568 5568 5568 5568 5569 5569 5570 5570 5570 5570 5571 5571 5571 5572 5572 5573 5573 5573 5574 5575 5576 5577 5577 5578 5579 5579 5580 5580 5581 5582 5583 5585 5587 5590 5593 5596 5599 5602 5604 5606
5543 5545 5547 5548 5550 5551 5553 5554 5556 5557 5559 5560 5561 5563 5564 5565 5566 5568 5570 5571 5572 5573 5574 5575 5576 5576 5577 5577 5578 5578 5579 5579 5579 5579 5579 5579 5579 5578 5578 5577 5577 5576 5575 5574 5572 5570 5568 5567 5566 5566 5567 5568 5569 5569 5569 5569 5569 5569 5570 5570 5570 5571 5571 5571 5571 5572 5573 5573 5574 5574 5574 5575 5575 5575 5575 5576 5576 5577 5579 5582 5585 5588 5591 5595 5598 5601 5603
5542 5544 5545 5547 5548 5550 5552 5553 5555 5556 5558 5559 5560 5562 5563 5565 5566 5568 5570 5571 5572 5573 5574 5575 5576 5576 5576 5577 5578 5578 5578 5578 5578 5578 5578 5578 5578 5577 5577 5577 5576 5576 5575 5573 5571 5569 5567 5565 5564 5565 5566 5567 5568 5569 5569 5569 5568 5568 5569 5569 5569 5569 5569 5569 5570 5570 5571 5571 5571 5571 5571 5571 5571 5571 5571 5571 5572 5573 5575 5578 5581 5584 5588 5592 5595 5598 5600
5540 5542 5543 5545 5547 5549 5551 5552 5554 5555 5557 5558 5559 5561 5563 5564 5566 5568 5570 5570 5571 5572 5573 5574 5575 5576 5576 5576 5577 5578 5578 5578 5578 5578 5578 5577 5577 5577 5576 5576 5576 5575 5574 5573 5571 5569 5566 5565 5564 5564 5566 5567 5568 5568 5568 5568 5568 5568 5568 5568 5568 5568 5568 5568 5568 5568 5568 5569 5569 5569 5569 5569 5569 5569 5569 5569 5570 5571 5573 5576 5579 5582 5586 5589 5592 5595 5597
5537 5539 5541 5543 5545 5547 5549 5551 5553 5554 5556 5557 5559 5560 5562 5564 5565 5567 5568 5569 5570 5571 5572 5573 5574 5575 5575 5576 5576 5577 5577 5577 5577 5577 5577 5577 5577 5576 5576 5576 5575 5574 5573 5572 5570 5568 5566 5565 5565 5565 5566 5567 5567 5568 5568 5568 5567 5567 5567 5567 5567 5567 5567 5567 5567 5567 5567 5567 5567 5568 5568 5568 5568 5568 5568 5568 5569 5571 5573 5575 5578 5581 5584 5587 5590 5593 5595
5534 5536 5539 5541 5543 5545 5547 5549 5551 5553 5555 5557 5558 5560 5562 5563 5564 5565 5566 5567 5568 5569 5570 5571 5573 5574 5574 5575 5576 5576 5576 5577 5577 5577 5577 5577 5576 5576 5575 5575 5575 5574 5573 5572 5570 5568 5567 5566 5566 5566 5567 5567 5567 5567 5567 5567 5567 5567 5567 5566 5566 5566 5566 5566 5566 5566 5566 5566 5566 5567 5567 5567 5567 5567 5568 5568 5569 5570 5573 5575 5578 5580 5583 5586 5589 5591 5593
5531 5534 5536 5539 5541 5543 5546 5548 5550 5553 5555 5556 5557 5559 5560 5561 5561 5562 5563 5565 5566 5567 5569 5570 5571 5572 5573 5574 5575 5575 5576 5576 5576 5576 5576 5576 5576 5575 5575 5575 5574 5574 5573 5572 5570 5569 5568 5567 5567 5567 5567 5568 5568 5568 5568 5568 5567 5567 5566 5566 5567 5567 5566 5566 5565 5565 5565 5565 5566 5566 5567 5567 5567 5568 5568 5569 5570 5571 5573 5575 5578 5580 5583 5585 5587 5590 5592
5529 5531 5534 5536 5539 5541 5544 5547 5550 5552 5554 5555 5556 5556 5557 5557 5558 5560 5562 5563 5565 5566 5568 5569 5570 5571 5572 5573 5574 5574 5575 5575 5575 5575 5576 5576 5575 5575 5575 5575 5574 5573 5573 5572 5571 5569 5568 5568 5568 5568 5568 5568 5568 5568 5568 5568 5567 5567 5567 5567 5567 5567 5567 5566 5565 5565 5565 5566 5566 5566 5567 5567 5568 5568 5569 5569 5570 5571 5573 5575 5578 5580 5583 5585 5587 5589 5591
5526 5528 5531 5533 5536 5539 5543 5545 5548 5550 5551 5552 5553 5554 5555 5556 5557 5559 5561 5562 5564 5565 5566 5567 5568 5570 5571 5572 5573 5574 5574 5574 5575 5575 5575 5575 5575 5575 5575 5575 5574 5573 5572 5572 5571 5570 5569 5568 5568 5568 5569 5568 5568 5569 5569 5569 5568 5568 5568 5568 5568 5568 5568 5567 5566 5566 5566 5566 5567 5567 5567 5568 5569 5569 5570 5571 5571 5572 5574 5576 5578 5580 5583 5585 5587 5589 5591
5523 5525 5528 5530 5534 5537 5540 5542 5545 5547 5548 5549 5551 5552 5553 5554 5556 5557 5558 5560 5563 5564 5564 5566 5567 5569 5570 5571 5572 5573 5573 5573 5574 5574 5574 5575 5575 5575 5575 5574 5573 5573 5572 5572 5572 5571 5570 5569 5569 5569 5569 5569 5569 5569 5569 5569 5569 5569 5569 5569 5569 5569 5568 5568 5567 5567 5567 5567 5568 5568 5568 5569 5570 5571 5571 5572 5574 5575 5576 5577 5579 5581 5584 5586 5588 5590 5592
5519 5522 5524 5527 5531 5534 5536 5539 5542 5544 5545 5547 5548 5550 5551 5552 5554 5555 5556 5558 5560 5561 5563 5565 5567 5568 5569 5570 5571 5572 5572 5572 5573 5573 5574 5574 5574 5574 5574 5574 5573 5573 5572 5572 5572 5572 5571 5570 5569 5569 5569 5569 5569 5569 5569 5569 5569 5569 5570 5570 5569 5569 5569 5569 5568 5568 5568 5569 5569 5569 5569 5570 5571 5572 5573 5574 5575 5576 5578 5579 5581 5583 5585 5586 5588 5590 5593
5515 5519 5522 5524 5527 5529 5532 5535 5538 5541 5543 5544 5545 5546 5547 5548 5550 5552 5554 5555 5557 5559 5561 5563 5565 5566 5567 5569 5570 5570 5571 5571 5572 5572 5573 5573 5574 5574 5574 5574 5573 5573 5573 5572 5572 5572 5572 5571 5570 5570 5569 5569 5569 5569 5569 5569 5569 5570 5570 5570 5570 5570 5570 5569 5569 5569 5569 5570 5570 5570 5570 5571 5572 5573 5574 5575 5576 5578 5579 5581 5582 5584 5586 5587 5589 5591 5593
5512 5515 5518 5520 5523 5525 5528 5532 5535 5537 5539 5540 5542 5543 5544 5546 5547 5549 5551 5553 5555 5557 5559 5561 5562 5564 5565 5567 5568 5569 5570 5570 5571 5571 5572 5573 5573 5574 5574 5574 5573 5573 5573 5573 5572 5573 5572 5572 5571 5571 5570 5570 5569 5569 5569 5569 5569 5569 5570 5570 5570 5570 5570 5570 5570 5570 5570 5571 5571 5571 5572 5573 5574 5575 5576 5577 5578 5580 5581 5583 5584 5586 5587 5589 5591 5593 5596